map of PVH home
Great Circle Mapper logo
PVH - Airport
Location
City:  Porto Velho, Rond˘nia, Brazil
Name:Governador Jorge Teixeira de Oliveira
ICAO:SBPV
IATA:PVH

Details
Type:Airport (Aerodrome, Airfield)
Use:Public/Civil, International (customs port of entry)
Latitude:8░42'33"S (-8.709293)
Longitude:63░54'08"W (-63.902280)
Datum:WGS 1984
Elevation:294 ft (90 m)
Variation:12.68░W (WMM2015 magnetic declination)
-0.16░ annual change
Runways:1
Longest:7925 × 148 ft (2416 × 45 m), paved

Time
Time Zone:UTC-4
Local Time:

Weather
METAR:SBPV 300500Z 00000KT CAVOK 25/21 Q1011
TAF:SBPV 300400Z 3006/3106 34002KT CAVOK TN23/3010Z TX34/3019Z
BECMG 3007/3009 9999 FEW035
BECMG 3015/3017 SCT030 FEW035TCU
BECMG 3021/3023 00000KT CAVOK
BECMG 3102/3105 34002KT
RMK PDY

Related Locations
Nearby:
Farthest:KUD: 12300 mi / 19794 km
Kudat, 12, MY

Find:

   beyond  
but within

Other Information
Maps:
NOTAMs:
Links:
Sources:

  
flag of Brazil
flag of Rond˘nia
  

Sectional Chart

Flight Planning
at skyvector.com

Satellite Image

Google Maps Satellite view

 

Copyright © 2004-2016 Karl L. Swartz. All rights reserved.
The Great Circle Mapper name and logo are trademarks of the Great Circle Mapper.
All other trademarks mentioned herein belong to their respective owners.
Please see credits for attibutions and further copyright information.

  Follow gcmap on Facebook Follow gcmap on Twitter Follow gcmap on Google+ GCmap on LinkedIn

hCard Microformat

Geo Microformat